Regional Weather Roundup
Issued by NWS

Home | Current Version | Previous Version | Text Only | Print | Product List | Glossary Off
Versions: 1 2 3 4 5 6 7 8 9 10 11 12 13 14 15 16 17 18 19 20 21 22 23 24 25 26 27 28 29 30 31 32 33 34 35 36 37 38 39 40 41 42 43 44 45 46 47 48 49 50

000
ASUS43 KMPX 010710
RWRMN
WEATHER ROUNDUP FOR MINNESOTA
NATIONAL WEATHER SERVICE TWIN CITIES/CHANHASSEN MN
100 AM CST WED MAR 01 2017


NOTE: "FAIR" INDICATES FEW OR NO CLOUDS BELOW 12,000 FEET WITH NO
SIGNIFICANT WEATHER AND/OR OBSTRUCTIONS TO VISIBILITY. N/A MEANS
CURRENT SKY AND/OR WEATHER CONDITIONS ARE NOT AVAILABLE.

MNZ060>063-068>070-010800-
   Twin Cities Metro

CITY           SKY/WX    TMP DP  RH WIND       PRES   REMARKS
TWIN CITIES    CLOUDY    31  24  75 N12       29.72R WCI  22
ST PAUL        CLOUDY    32  26  78 N10G20    29.73R WCI  24
CRYSTAL        CLOUDY    30  22  72 N10       29.73R WCI  21
BLAINE         CLOUDY    30  27  86 N13       29.73S WCI  20
LAKEVILLE      CLOUDY    30  28  93 N9        29.70S WCI  22
EDEN PRAIRIE   CLOUDY    31  24  75 N10       29.71R WCI  22
SOUTH ST PAUL  CLOUDY    32  26  79 N10G18    29.71R WCI  24
LAKE ELMO      CLOUDY    32  28  86 N9        29.72R WCI  24
$$
MNZ001>005-007-008-013>017-022>024-027-028-010800-
   Northwest Minnesota

CITY           SKY/WX    TMP DP  RH WIND       PRES   REMARKS
BEMIDJI        CLOUDY    18  11  75 N5        29.84S WCI  11
HALLOCK        CLOUDY     7   1  78 N8        29.94F WCI  -6
ROSEAU         PTCLDY     9   0  66 NE7       29.92S WCI  -3
WARROAD        CLOUDY    10   1  67 N7        29.93S WCI   0
THIEF RVR FALL PTCLDY    17   7  64 NE9       29.89F WCI   6
CROOKSTON      CLOUDY    14  10  85 N9        29.92R WCI   2
FOSSTON        CLOUDY    18  12  79 NE6       29.87R WCI   9
DETROIT LAKES  CLOUDY    27  19  74 CALM      29.84S
MOORHEAD       PTCLDY    19  16  86 N12       29.88F WCI   7
PARK RAPIDS    CLOUDY    24  14  65 N7        29.81R WCI  16
MAHNOMEN       CLOUDY    21  16  80 NE6       29.85S WCI  13
$$
MNZ006-009>011-018-025>026-010800-
   North Central Minnesota

CITY           SKY/WX    TMP DP  RH WIND       PRES   REMARKS
BAUDETTE       CLOUDY    13   0  56 NE5       29.90S WCI   5
FLAG ISLAND    PTCLDY     9   1  72 CALM      29.93F
INTL FALLS     CLEAR     14   2  58 NE6       29.89F WCI   5
WASKISH        CLEAR     16   7  67 NE7       29.87S WCI   6
BIG FORK       CLOUDY    19  12  73 N3        29.85R
LONGVILLE      CLOUDY    27  19  74 NE5       29.82R WCI  21
GRAND RAPIDS   CLOUDY    24  17  74 N6        29.84S WCI  17
CRANE LAKE     CLOUDY    14   3  62 CALM      29.92R
ORR            CLOUDY    18   1  49 CALM      29.85R
COOK           PTCLDY    16   3  57 NE5       29.86S WCI   9
WALKER         CLOUDY    23  15  72 N6        29.83S WCI  15
$$
MNZ012-019>021-037-010800-
   Northeast Minnesota

CITY           SKY/WX    TMP DP  RH WIND       PRES   REMARKS
DULUTH         CLOUDY    24  17  74 NE13      29.79S WCI  12
ELY            CLOUDY    14   3  62 NE6       29.85R WCI   5
HIBBING        CLOUDY    20  11  68 NE5       29.82S WCI  13
EVELETH        CLOUDY    20   6  55 NE6       29.83S WCI  12
DULUTH HARBOR  CLOUDY    28  25  86 NE23      29.83S WCI  14
TWO HARBORS    CLOUDY    27  18  69 NE7       29.80F WCI  19
SILVER BAY     CLOUDY    21  12  68 N7        29.82S WCI  13
GRAND MARAIS     N/A     20   6  55 NE7       29.88R WCI  11
G MARAIS ARPRT PTCLDY    10   0  61 N13       29.80R WCI  -5
$$
MNZ029>031-032-039>041-046>048-054>057-064-010800-
   West Central Minnesota

CITY           SKY/WX    TMP DP  RH WIND       PRES   REMARKS
FERGUS FALLS   CLOUDY    27  19  74 N7        29.88R WCI  19
WHEATON        CLOUDY    23  21  93 NW12      29.88R WCI  12
MORRIS         CLOUDY    30  27  86 NW12      29.80F WCI  21
ALEXANDRIA     MOCLDY    29  23  78 N7        29.80R WCI  22
ELBOW LAKE     FAIR      26  22  85 N7        29.83R WCI  18
WADENA         CLOUDY    25  18  74 N8        29.81R WCI  16
GLENWOOD       CLOUDY    30  27  86 N8        29.79S WCI  23
APPLETON       CLOUDY    30  28  93 N9        29.81S WCI  22
BENSON         CLOUDY    34  27  75 N5        29.81F WCI  30
ORTONVILLE     CLOUDY    25  21  86 NW10      29.83R WCI  15
MADISON        CLOUDY    30  28  93 NW14      29.82R WCI  20
WILLMAR        CLOUDY    32  28  86 N7        29.79S WCI  26
$$
MNZ033>034-036-042>043-049>051-058-059-010800-
   Central Minnesota

CITY           SKY/WX    TMP DP  RH WIND       PRES   REMARKS
ST CLOUD       CLOUDY    29  25  85 NE9       29.78R WCI  20
SAUK CENTRE    CLOUDY    30  25  81 NE7       29.79R WCI  23
PAYNESVILLE    CLOUDY    31  31 100 N10       29.79R WCI  22
AITKIN         CLOUDY    30  19  64 N8        29.79S WCI  23
PINE RIVER     CLOUDY    28  21  74 NE3       29.85R
BRAINERD       CLOUDY    28  22  78 NE9       29.80S WCI  19
STAPLES        CLOUDY    27  19  74 N7        29.80R WCI  19
LONG PRAIRIE   CLOUDY    30  25  80 N6        29.80R WCI  24
LITTLE FALLS   CLOUDY    30  25  80 NE3       29.80R
LITCHFIELD     CLOUDY    30  27  86 NE12G17   29.77S WCI  21
BUFFALO        CLOUDY    29  25  83 N12       29.76R WCI  20
MAPLE LAKE     CLOUDY    31  27  88 N9G18     29.77R WCI  22
HUTCHINSON     CLOUDY    32  28  87 N8G17     29.76R WCI  24
$$
MNZ037-044-045-052-053-010800-
   East Central Minnesota

CITY           SKY/WX    TMP DP  RH WIND       PRES   REMARKS
PRINCETON      CLOUDY    28  25  86 N10G16    29.78R WCI  19
MORA           CLOUDY    27  23  86 NE6       29.79R WCI  20
CAMBRIDGE      CLOUDY    30  21  69 N10       29.75R WCI  21
RUSH CITY      CLOUDY    28  24  85 N9G16     29.76R WCI  19
MOOSE LAKE     CLOUDY    28  23  80 NE12G17   29.77S WCI  18
HINCKLEY       CLOUDY    28  25  86 NE10      29.77R WCI  19
CLOQUET        CLOUDY    25  19  80 NE12G22   29.79R WCI  14
MCGREGOR       CLOUDY    28  23  80 NE8       29.80S WCI  20
$$
MNZ071>073-080-081-089-090-097-098-010800-
   Southwest Minnesota

CITY           SKY/WX    TMP DP  RH WIND       PRES   REMARKS
MONTEVIDEO     CLOUDY    30  28  93 N9        29.81F WCI  22
GRANITE FALLS  CLOUDY    33  30  87 NW8       29.81R WCI  26
CANBY          CLOUDY    28  26  94 W12G17    29.83R WCI  18
MARSHALL       FLURRIES  30  29  96 N13       29.79R WCI  20
REDWOOD FALLS  CLOUDY    33  28  81 N7        29.77R WCI  27
OLIVIA         CLOUDY    34  32  93 N12       29.76S WCI  25
PIPESTONE      CLOUDY    30  27  86 N8        29.76R WCI  23
WINDOM         CLOUDY    32  30  93 NW17      29.73S WCI  21
WORTHINGTON    MIX PCPN  31  30  96 N16       29.74S FOG     WCI  20
JACKSON        CLOUDY    32  32 100 N13G18    29.73R FOG     WCI  22
TRACY          LGT SNOW  32  31  97 N13       29.77S WCI  22
SLAYTON        LGT SNOW  30  29  97 N15       29.76R WCI  19
$$
MNZ065>067-074>077-082>085-091>093-010800-
   South Central Minnesota

CITY           SKY/WX    TMP DP  RH WIND       PRES   REMARKS
MANKATO          N/A     31  28  89 N14       29.72R WCI  21
NEW ULM        CLOUDY    30  27  86 N10G16    29.73R WCI  21
ST JAMES       CLOUDY    32  28  86 N13       29.74R WCI  22
FAIRMONT       CLOUDY    32  30  92 N16       29.72R WCI  21
GLENCOE        CLOUDY    32  29  90 N9        29.74S WCI  24
FARIBAULT      CLOUDY    30  30 100 N6G16     29.70R FOG     WCI  24
WASECA         CLOUDY    32  32 100 N13       29.70R FOG     WCI  22
ALBERT LEA     MIX PCPN  32  32 100 N14       29.66S WCI  22
$$
MNZ078>079-086>088-094>096-010800-
   Southeast Minnesota

CITY           SKY/WX    TMP DP  RH WIND       PRES   REMARKS
ROCHESTER      MIX PCPN  32  32 100 N15       29.62F VSB 3/4 WCI  22
RED WING       CLOUDY    34  27  75 NE3       29.67S
STANTON        CLOUDY    32  30  93 N12       29.67S FOG     WCI  23
WINONA         CLOUDY    36  34  93 N3        29.63F
AUSTIN         DRIZZLE   32  30  93 N10       29.64R WCI  24
PRESTON        CLOUDY    33  32  96 N12       29.60S FOG     WCI  24
$$
ABBREVIATIONS USED IN REMARKS
   TC - TEMPERATURES IN CELSIUS
  WCI - WIND CHILL INDEX
   HX - HEAT INDEX
  VSB - VISIBILITY
$$



USA.gov is the U.S. government's official web portal to all federal, state and local government web resources and services.